Time,TemperatureF,DewpointF,PressureIn,WindDirection,WindDirectionDegrees,WindSpeedMPH,WindSpeedGustMPH,Humidity,HourlyPrecipIn,Conditions,Clouds,dailyrainin,SoftwareType,DateUTC
2013-04-27 00:02:00,50.0,46.0,30.17,SSW,200,5.0,-999.0,87,-99.99,,,-99.99,,2013-04-27 05:02:00,
2013-04-27 00:12:00,48.0,46.0,30.17,South,190,5.0,-999.0,93,-99.99,,,-99.99,,2013-04-27 05:12:00,
2013-04-27 00:22:00,46.0,43.0,30.17,SSW,210,5.0,-999.0,87,-99.99,,,-99.99,,2013-04-27 05:22:00,
2013-04-27 00:32:00,45.0,45.0,30.17,SSW,200,5.0,-999.0,100,-99.99,,,-99.99,,2013-04-27 05:32:00,
2013-04-27 00:42:00,45.0,45.0,30.17,SSW,200,6.0,-999.0,100,-99.99,,,-99.99,,2013-04-27 05:42:00,
2013-04-27 00:52:00,46.0,45.0,30.17,South,190,5.0,-999.0,93,-99.99,,,-99.99,,2013-04-27 05:52:00,
2013-04-27 01:02:00,46.0,45.0,30.17,South,190,5.0,-999.0,93,-99.99,,,-99.99,,2013-04-27 06:02:00,
2013-04-27 01:12:00,45.0,45.0,30.17,SW,220,6.0,-999.0,100,-99.99,,,-99.99,,2013-04-27 06:12:00,
2013-04-27 01:22:00,45.0,43.0,30.17,SW,220,6.0,-999.0,93,-99.99,,,-99.99,,2013-04-27 06:22:00,
2013-04-27 01:32:00,43.0,43.0,30.17,SW,230,6.0,-999.0,100,-99.99,,,-99.99,,2013-04-27 06:32:00,
2013-04-27 01:41:00,43.0,43.0,30.17,SW,230,7.0,-999.0,100,-99.99,,,-99.99,,2013-04-27 06:41:00,
2013-04-27 01:51:00,43.0,43.0,30.17,WSW,240,7.0,-999.0,100,-99.99,,,-99.99,,2013-04-27 06:51:00,
2013-04-27 02:01:00,43.0,43.0,30.17,WSW,240,7.0,-999.0,100,-99.99,,,-99.99,,2013-04-27 07:01:00,
2013-04-27 02:11:00,43.0,43.0,30.16,SW,230,6.0,-999.0,100,-99.99,,,-99.99,,2013-04-27 07:11:00,
2013-04-27 02:21:00,43.0,43.0,30.16,SW,220,5.0,-999.0,100,-99.99,,,-99.99,,2013-04-27 07:21:00,
2013-04-27 02:31:00,43.0,43.0,30.16,SW,220,5.0,-999.0,100,-99.99,,,-99.99,,2013-04-27 07:31:00,
2013-04-27 02:42:00,43.0,43.0,30.16,SW,230,5.0,-999.0,100,-99.99,,,-99.99,,2013-04-27 07:42:00,
2013-04-27 02:52:00,43.0,43.0,30.16,North,0,0.0,-999.0,100,-99.99,,,-99.99,,2013-04-27 07:52:00,
2013-04-27 03:01:00,43.0,43.0,30.16,North,0,0.0,-999.0,100,-99.99,,,-99.99,,2013-04-27 08:01:00,
2013-04-27 03:11:00,45.0,45.0,30.14,North,0,0.0,-999.0,100,-99.99,,,-99.99,,2013-04-27 08:11:00,
2013-04-27 03:21:00,45.0,43.0,30.14,North,0,0.0,-999.0,93,-99.99,,,-99.99,,2013-04-27 08:21:00,
2013-04-27 03:33:00,41.0,41.0,30.14,North,0,0.0,-999.0,100,-99.99,,,-99.99,,2013-04-27 08:33:00,
2013-04-27 03:41:00,41.0,39.0,30.14,North,0,0.0,-999.0,93,-99.99,,,-99.99,,2013-04-27 08:41:00,
2013-04-27 03:51:00,41.0,39.0,30.13,North,0,0.0,-999.0,93,-99.99,,,-99.99,,2013-04-27 08:51:00,
2013-04-27 04:01:00,41.0,39.0,30.13,North,0,0.0,-999.0,93,-99.99,,,-99.99,,2013-04-27 09:01:00,
2013-04-27 04:11:00,39.0,39.0,30.13,North,0,0.0,-999.0,100,-99.99,,,-99.99,,2013-04-27 09:11:00,
2013-04-27 04:21:00,39.0,39.0,30.13,North,0,0.0,-999.0,100,-99.99,,,-99.99,,2013-04-27 09:21:00,
2013-04-27 04:33:00,37.0,37.0,30.13,North,0,0.0,-999.0,100,-99.99,,,-99.99,,2013-04-27 09:33:00,
2013-04-27 04:42:00,37.0,37.0,30.12,North,0,0.0,-999.0,100,-99.99,,,-99.99,,2013-04-27 09:42:00,
2013-04-27 04:53:00,37.0,37.0,30.12,North,0,0.0,-999.0,100,-99.99,,,-99.99,,2013-04-27 09:53:00,
2013-04-27 05:02:00,37.0,37.0,30.12,North,0,0.0,-999.0,100,-99.99,,,-99.99,,2013-04-27 10:02:00,
2013-04-27 05:12:00,37.0,37.0,30.12,North,0,0.0,-999.0,100,-99.99,,,-99.99,,2013-04-27 10:12:00,
2013-04-27 05:22:00,36.0,36.0,30.12,West,260,3.0,-999.0,100,-99.99,,,-99.99,,2013-04-27 10:22:00,
2013-04-27 05:32:00,37.0,37.0,30.12,West,260,5.0,-999.0,100,-99.99,,,-99.99,,2013-04-27 10:32:00,
2013-04-27 05:42:00,37.0,37.0,30.12,West,270,6.0,-999.0,100,-99.99,,,-99.99,,2013-04-27 10:42:00,
2013-04-27 05:52:00,37.0,37.0,30.12,West,270,7.0,-999.0,100,-99.99,,,-99.99,,2013-04-27 10:52:00,
2013-04-27 06:02:00,37.0,37.0,30.12,West,270,7.0,-999.0,100,-99.99,,,-99.99,,2013-04-27 11:02:00,
2013-04-27 06:11:00,37.0,37.0,30.12,West,270,6.0,-999.0,100,-99.99,,,-99.99,,2013-04-27 11:11:00,
2013-04-27 06:22:00,37.0,37.0,30.12,WSW,250,3.0,-999.0,100,-99.99,,,-99.99,,2013-04-27 11:22:00,
2013-04-27 06:32:00,36.0,36.0,30.12,West,260,5.0,-999.0,100,-99.99,,,-99.99,,2013-04-27 11:32:00,
2013-04-27 06:41:00,36.0,36.0,30.12,West,260,3.0,-999.0,100,-99.99,,,-99.99,,2013-04-27 11:41:00,
2013-04-27 06:52:00,36.0,36.0,30.12,SW,220,3.0,-999.0,100,-99.99,,,-99.99,,2013-04-27 11:52:00,
2013-04-27 07:01:00,36.0,36.0,30.12,SW,220,3.0,-999.0,100,-99.99,,,-99.99,,2013-04-27 12:01:00,
2013-04-27 07:11:00,36.0,36.0,30.12,WSW,250,3.0,-999.0,100,-99.99,,,-99.99,,2013-04-27 12:11:00,
2013-04-27 07:21:00,37.0,37.0,30.12,SW,230,5.0,-999.0,100,-99.99,,,-99.99,,2013-04-27 12:21:00,
2013-04-27 07:32:00,37.0,37.0,30.13,SW,230,5.0,-999.0,100,-99.99,,,-99.99,,2013-04-27 12:32:00,
2013-04-27 07:42:00,37.0,37.0,30.13,SW,220,3.0,-999.0,100,-99.99,,,-99.99,,2013-04-27 12:42:00,
2013-04-27 07:52:00,41.0,39.0,30.13,SW,230,3.0,-999.0,93,-99.99,,,-99.99,,2013-04-27 12:52:00,
2013-04-27 08:02:00,41.0,39.0,30.13,SW,230,3.0,-999.0,93,-99.99,,,-99.99,,2013-04-27 13:02:00,
2013-04-27 08:11:00,43.0,43.0,30.13,North,0,0.0,-999.0,100,-99.99,,,-99.99,,2013-04-27 13:11:00,
2013-04-27 08:21:00,45.0,45.0,30.13,North,0,0.0,-999.0,100,-99.99,,,-99.99,,2013-04-27 13:21:00,
2013-04-27 08:32:00,45.0,45.0,30.13,North,0,0.0,-999.0,100,-99.99,,,-99.99,,2013-04-27 13:32:00,
2013-04-27 08:41:00,46.0,46.0,30.13,North,0,0.0,-999.0,100,-99.99,,,-99.99,,2013-04-27 13:41:00,
2013-04-27 08:52:00,48.0,46.0,30.13,North,0,0.0,-999.0,93,-99.99,,,-99.99,,2013-04-27 13:52:00,
2013-04-27 09:02:00,48.0,46.0,30.13,North,0,0.0,-999.0,93,-99.99,,,-99.99,,2013-04-27 14:02:00,
2013-04-27 09:11:00,48.0,48.0,30.14,North,0,0.0,-999.0,100,-99.99,,,-99.99,,2013-04-27 14:11:00,
2013-04-27 09:21:00,52.0,52.0,30.14,North,0,0.0,-999.0,100,-99.99,,,-99.99,,2013-04-27 14:21:00,
2013-04-27 09:31:00,54.0,54.0,30.13,North,0,0.0,-999.0,100,-99.99,,,-99.99,,2013-04-27 14:31:00,
2013-04-27 09:41:00,54.0,54.0,30.13,North,0,0.0,-999.0,100,-99.99,,,-99.99,,2013-04-27 14:41:00,
2013-04-27 09:52:00,54.0,54.0,30.13,ESE,110,5.0,-999.0,100,-99.99,,,-99.99,,2013-04-27 14:52:00,
2013-04-27 10:01:00,54.0,54.0,30.13,ESE,110,5.0,-999.0,100,-99.99,,,-99.99,,2013-04-27 15:01:00,
2013-04-27 10:11:00,55.0,52.0,30.13,North,0,0.0,-999.0,87,-99.99,,,-99.99,,2013-04-27 15:11:00,
2013-04-27 10:21:00,59.0,52.0,30.13,ESE,110,3.0,-999.0,76,-99.99,,,-99.99,,2013-04-27 15:21:00,
2013-04-27 10:33:00,61.0,52.0,30.13,North,0,0.0,-999.0,72,-99.99,,,-99.99,,2013-04-27 15:33:00,
2013-04-27 10:42:00,61.0,52.0,30.13,East,100,3.0,-999.0,72,-99.99,,,-99.99,,2013-04-27 15:42:00,
2013-04-27 10:52:00,63.0,48.0,30.12,North,0,0.0,-999.0,59,-99.99,,,-99.99,,2013-04-27 15:52:00,
2013-04-27 11:03:00,63.0,48.0,30.12,North,0,0.0,-999.0,59,-99.99,,,-99.99,,2013-04-27 16:03:00,
2013-04-27 11:13:00,64.0,48.0,30.12,SSE,160,3.0,-999.0,55,-99.99,,,-99.99,,2013-04-27 16:13:00,
2013-04-27 11:22:00,68.0,48.0,30.12,North,0,0.0,-999.0,49,-99.99,,,-99.99,,2013-04-27 16:22:00,
2013-04-27 11:32:00,68.0,48.0,30.12,SE,140,3.0,-999.0,49,-99.99,,,-99.99,,2013-04-27 16:32:00,
2013-04-27 11:42:00,68.0,48.0,30.12,East,90,5.0,-999.0,49,-99.99,,,-99.99,,2013-04-27 16:42:00,
2013-04-27 11:52:00,70.0,46.0,30.11,ESE,110,5.0,-999.0,43,-99.99,,,-99.99,,2013-04-27 16:52:00,
2013-04-27 12:02:00,70.0,46.0,30.11,ESE,110,5.0,-999.0,43,-99.99,,,-99.99,,2013-04-27 17:02:00,
2013-04-27 12:11:00,70.0,48.0,30.11,SE,140,9.0,-999.0,46,-99.99,,,-99.99,,2013-04-27 17:11:00,
2013-04-27 12:22:00,70.0,46.0,30.11,SSE,150,9.0,-999.0,43,-99.99,,,-99.99,,2013-04-27 17:22:00,
2013-04-27 12:31:00,72.0,45.0,30.11,SSE,150,8.0,-999.0,37,-99.99,,,-99.99,,2013-04-27 17:31:00,
2013-04-27 12:42:00,72.0,45.0,30.11,SSE,150,8.0,-999.0,37,-99.99,,,-99.99,,2013-04-27 17:42:00,
2013-04-27 12:52:00,72.0,43.0,30.10,SE,130,8.0,-999.0,35,-99.99,,,-99.99,,2013-04-27 17:52:00,
2013-04-27 13:02:00,72.0,43.0,30.10,SE,130,8.0,-999.0,35,-99.99,,,-99.99,,2013-04-27 18:02:00,
2013-04-27 13:11:00,72.0,43.0,30.09,SE,140,7.0,-999.0,35,-99.99,,,-99.99,,2013-04-27 18:11:00,
2013-04-27 13:22:00,73.0,43.0,30.09,SE,140,6.0,-999.0,33,-99.99,,,-99.99,,2013-04-27 18:22:00,
2013-04-27 13:32:00,73.0,43.0,30.08,SE,130,10.0,-999.0,33,-99.99,,,-99.99,,2013-04-27 18:32:00,
2013-04-27 13:41:00,73.0,43.0,30.08,South,170,5.0,-999.0,33,-99.99,,,-99.99,,2013-04-27 18:41:00,
2013-04-27 13:51:00,73.0,43.0,30.07,ESE,120,9.0,-999.0,33,-99.99,,,-99.99,,2013-04-27 18:51:00,
2013-04-27 14:02:00,73.0,43.0,30.07,ESE,120,9.0,-999.0,33,-99.99,,,-99.99,,2013-04-27 19:02:00,
2013-04-27 14:11:00,75.0,43.0,30.06,SE,140,9.0,18.0,31,-99.99,,,-99.99,,2013-04-27 19:11:00,
2013-04-27 14:21:00,75.0,43.0,30.06,ESE,110,9.0,-999.0,31,-99.99,,,-99.99,,2013-04-27 19:21:00,
2013-04-27 14:32:00,75.0,43.0,30.05,SSE,150,9.0,-999.0,31,-99.99,,,-99.99,,2013-04-27 19:32:00,
2013-04-27 14:42:00,75.0,41.0,30.04,SE,140,8.0,-999.0,29,-99.99,,,-99.99,,2013-04-27 19:42:00,
2013-04-27 14:52:00,77.0,41.0,30.04,SSE,150,10.0,17.0,27,-99.99,,,-99.99,,2013-04-27 19:52:00,
2013-04-27 15:02:00,77.0,41.0,30.04,SSE,150,10.0,17.0,27,-99.99,,,-99.99,,2013-04-27 20:02:00,
2013-04-27 15:11:00,77.0,43.0,30.03,ESE,120,9.0,18.0,29,-99.99,,,-99.99,,2013-04-27 20:11:00,
2013-04-27 15:21:00,77.0,41.0,30.02,SE,140,13.0,-999.0,27,-99.99,,,-99.99,,2013-04-27 20:21:00,
2013-04-27 15:32:00,77.0,41.0,30.01,ESE,110,14.0,-999.0,27,-99.99,,,-99.99,,2013-04-27 20:32:00,
2013-04-27 15:42:00,77.0,41.0,30.01,SE,140,13.0,-999.0,27,-99.99,,,-99.99,,2013-04-27 20:42:00,
2013-04-27 15:52:00,77.0,41.0,30.00,SE,130,15.0,22.0,27,-99.99,,,-99.99,,2013-04-27 20:52:00,
2013-04-27 16:02:00,77.0,41.0,30.00,SE,130,15.0,22.0,27,-99.99,,,-99.99,,2013-04-27 21:02:00,
2013-04-27 16:11:00,79.0,41.0,29.99,SE,130,9.0,20.0,25,-99.99,,,-99.99,,2013-04-27 21:11:00,
2013-04-27 16:21:00,79.0,41.0,29.99,SE,140,13.0,16.0,25,-99.99,,,-99.99,,2013-04-27 21:21:00,
2013-04-27 16:32:00,79.0,41.0,29.98,SSE,150,13.0,20.0,25,-99.99,,,-99.99,,2013-04-27 21:32:00,
2013-04-27 16:42:00,79.0,41.0,29.98,SE,140,12.0,18.0,25,-99.99,,,-99.99,,2013-04-27 21:42:00,
2013-04-27 16:53:00,79.0,43.0,29.98,SE,140,14.0,17.0,27,-99.99,,,-99.99,,2013-04-27 21:53:00,
2013-04-27 17:02:00,79.0,43.0,29.98,SE,140,14.0,17.0,27,-99.99,,,-99.99,,2013-04-27 22:02:00,
2013-04-27 17:12:00,79.0,41.0,29.96,SE,130,13.0,21.0,25,-99.99,,,-99.99,,2013-04-27 22:12:00,
2013-04-27 17:22:00,77.0,41.0,29.96,SSE,150,15.0,22.0,27,-99.99,,,-99.99,,2013-04-27 22:22:00,
2013-04-27 17:32:00,77.0,41.0,29.95,ESE,120,12.0,-999.0,27,-99.99,,,-99.99,,2013-04-27 22:32:00,
2013-04-27 17:42:00,77.0,41.0,29.95,ESE,120,15.0,21.0,27,-99.99,,,-99.99,,2013-04-27 22:42:00,
2013-04-27 17:52:00,77.0,41.0,29.95,ESE,120,13.0,20.0,27,-99.99,,,-99.99,,2013-04-27 22:52:00,
2013-04-27 18:02:00,77.0,41.0,29.95,ESE,120,13.0,20.0,27,-99.99,,,-99.99,,2013-04-27 23:02:00,
2013-04-27 18:11:00,77.0,39.0,29.95,SE,140,13.0,22.0,25,-99.99,,,-99.99,,2013-04-27 23:11:00,
2013-04-27 18:22:00,75.0,39.0,29.94,SE,140,15.0,21.0,27,-99.99,,,-99.99,,2013-04-27 23:22:00,
2013-04-27 18:32:00,75.0,39.0,29.94,SE,140,13.0,-999.0,27,-99.99,,,-99.99,,2013-04-27 23:32:00,
2013-04-27 18:42:00,75.0,39.0,29.94,SE,130,14.0,17.0,27,-99.99,,,-99.99,,2013-04-27 23:42:00,
2013-04-27 18:52:00,75.0,39.0,29.94,SE,130,15.0,-999.0,27,-99.99,,,-99.99,,2013-04-27 23:52:00,
2013-04-27 19:01:00,75.0,39.0,29.94,SE,130,15.0,-999.0,27,-99.99,,,-99.99,,2013-04-28 00:01:00,
2013-04-27 19:11:00,73.0,39.0,29.94,SE,140,14.0,-999.0,28,-99.99,,,-99.99,,2013-04-28 00:11:00,
2013-04-27 19:21:00,73.0,39.0,29.94,ESE,120,15.0,20.0,28,-99.99,,,-99.99,,2013-04-28 00:21:00,
2013-04-27 19:32:00,73.0,39.0,29.94,SE,130,12.0,17.0,28,-99.99,,,-99.99,,2013-04-28 00:32:00,
2013-04-27 19:42:00,73.0,39.0,29.94,ESE,120,14.0,17.0,28,-99.99,,,-99.99,,2013-04-28 00:42:00,
2013-04-27 19:52:00,72.0,39.0,29.94,ESE,120,10.0,16.0,30,-99.99,,,-99.99,,2013-04-28 00:52:00,
2013-04-27 20:01:00,72.0,39.0,29.94,ESE,120,10.0,16.0,30,-99.99,,,-99.99,,2013-04-28 01:01:00,
2013-04-27 20:11:00,70.0,39.0,29.93,SE,130,10.0,-999.0,32,-99.99,,,-99.99,,2013-04-28 01:11:00,
2013-04-27 20:21:00,68.0,39.0,29.93,SE,130,10.0,-999.0,34,-99.99,,,-99.99,,2013-04-28 01:21:00,
2013-04-27 20:31:00,66.0,39.0,29.93,SE,130,9.0,-999.0,37,-99.99,,,-99.99,,2013-04-28 01:31:00,
2013-04-27 20:42:00,66.0,39.0,29.93,SE,130,9.0,-999.0,37,-99.99,,,-99.99,,2013-04-28 01:42:00,
2013-04-27 20:52:00,64.0,41.0,29.93,SE,130,7.0,-999.0,42,-99.99,,,-99.99,,2013-04-28 01:52:00,
2013-04-27 21:02:00,64.0,41.0,29.93,SE,130,7.0,-999.0,42,-99.99,,,-99.99,,2013-04-28 02:02:00,
2013-04-27 21:12:00,64.0,43.0,29.94,SE,130,8.0,-999.0,45,-99.99,,,-99.99,,2013-04-28 02:12:00,
2013-04-27 21:22:00,63.0,43.0,29.94,SE,140,10.0,-999.0,48,-99.99,,,-99.99,,2013-04-28 02:22:00,
2013-04-27 21:32:00,63.0,43.0,29.94,SE,140,9.0,-999.0,48,-99.99,,,-99.99,,2013-04-28 02:32:00,
2013-04-27 21:42:00,63.0,43.0,29.94,SE,140,9.0,-999.0,48,-99.99,,,-99.99,,2013-04-28 02:42:00,
2013-04-27 21:52:00,63.0,43.0,29.94,SE,140,9.0,-999.0,48,-99.99,,,-99.99,,2013-04-28 02:52:00,
2013-04-27 22:01:00,63.0,43.0,29.94,SE,140,9.0,-999.0,48,-99.99,,,-99.99,,2013-04-28 03:01:00,
2013-04-27 22:11:00,63.0,43.0,29.95,ESE,120,9.0,-999.0,48,-99.99,,,-99.99,,2013-04-28 03:11:00,
2013-04-27 22:21:00,63.0,43.0,29.95,SE,140,9.0,-999.0,48,-99.99,,,-99.99,,2013-04-28 03:21:00,
2013-04-27 22:32:00,63.0,43.0,29.95,SE,140,9.0,-999.0,48,-99.99,,,-99.99,,2013-04-28 03:32:00,
2013-04-27 22:42:00,63.0,43.0,29.95,SE,140,9.0,-999.0,48,-99.99,,,-99.99,,2013-04-28 03:42:00,
2013-04-27 22:53:00,61.0,43.0,29.95,SSE,150,9.0,-999.0,51,-99.99,,,-99.99,,2013-04-28 03:53:00,
2013-04-27 23:02:00,61.0,43.0,29.95,SSE,150,9.0,-999.0,51,-99.99,,,-99.99,,2013-04-28 04:02:00,
2013-04-27 23:13:00,61.0,43.0,29.96,SSE,150,9.0,-999.0,51,-99.99,,,-99.99,,2013-04-28 04:13:00,
2013-04-27 23:22:00,57.0,45.0,29.95,SSE,160,12.0,16.0,62,-99.99,,,-99.99,,2013-04-28 04:22:00,
2013-04-27 23:32:00,59.0,45.0,29.95,SSE,160,10.0,17.0,58,-99.99,,,-99.99,,2013-04-28 04:32:00,
2013-04-27 23:42:00,59.0,45.0,29.95,SSE,160,9.0,17.0,58,-99.99,,,-99.99,,2013-04-28 04:42:00,
2013-04-27 23:52:00,57.0,45.0,29.95,SSE,150,8.0,-999.0,62,-99.99,,,-99.99,,2013-04-28 04:52:00,